Flag for Australia Weather past 2 weeks in Eucla, Western Australia, Australia

Now
75 °F

Mild.


Feels Like: 77 °F
Forecast: 64 / 73 °F
Wind: 7 mph from North

Location: Eucla Amo


UV Index: 3 (Moderate)

Visibility: N/A


Pressure: 29.82 "Hg

Humidity: 27%

Dew point: 39 °F

Location of EuclaLocation

Historic Weather in Eucla

°F

Eucla temperature yesterday

Maximum temperature yesterday: 72 °F (at 11:45 AM)
Minimum temperature yesterday: 58 °F (at 6:45 AM)
Average temperature yesterday: 66 °F

Past Weeks' High & Low Weather Summary

 TemperatureHumidityPressure
High94 °F (Apr 20, 2:45 PM)98% (Apr 9, 12:45 AM)30.27 "Hg (Apr 9, 12:45 AM)
Low53 °F (Apr 16, 5:45 AM)11% (Apr 20, 2:45 PM)29.78 "Hg (Apr 7, 3:45 AM)
Average66 °F77%30.06 "Hg
* Reported Apr 5 6:45 PM — Apr 20 6:45 PM, Eucla, Weather by CustomWeather, © 2014

Note: Actual official high and low records may vary slightly from our data, if they occured in-between our weather recording intervals... More about our weather records

Advertising

Historic Weather Conditions — Data for Previous 24 hours

 ConditionsComfort  
Time TempWeatherWind HumidityBarometerVisibility
6:45 PM
Apr 20
75 °FMild.7 mph27%29.82 "HgN/A
5:45 PM81 °FPleasantly warm.6 mph20%29.81 "HgN/A
3:45 PM93 °FPartly sunny.9 mph12%29.81 "Hg25 mi
2:45 PM94 °FExtremely hot.12 mph11%29.81 "HgN/A
12:45 PM93 °FHot.15 mph13%29.85 "HgN/A
11:45 AM90 °FHot.16 mph15%29.88 "HgN/A
9:45 AM82 °FPassing clouds.15 mph24%29.91 "Hg25 mi
8:45 AM76 °FMild.12 mph32%29.94 "HgN/A
6:45 AM65 °FMild.13 mph49%29.94 "HgN/A
5:45 AM65 °FMild.14 mph56%29.93 "HgN/A
3:45 AM62 °FCool.13 mph70%29.93 "HgN/A
2:45 AM63 °FMild.12 mph69%29.94 "HgN/A
12:45 AM62 °FMild.9 mph70%29.96 "HgN/A
11:45 PM
Apr 19
64 °FMild.10 mph67%29.96 "HgN/A
9:45 PM66 °FMild.10 mph60%29.97 "HgN/A
8:45 PM67 °FMild.10 mph63%29.98 "HgN/A
Weather by CustomWeather, © 2014

See weather overview